星链-3208 (STARLINK-3208 )

导读 | 豆包AI

STARLINK-3208是美国太空探索技术公司(SpaceX)星链互联网卫星星座中的一员,于2021年12月2日在佛罗里达州卡纳维拉尔角发射升空,属于星链项目批量部署的组网卫星,旨在为全球提供低延迟、高速率的卫星互联网覆盖服务,运行在近地轨道,支撑星链全球网络的容量拓展与服务覆盖完善。

基本信息
目录编号:
49769
目录名称:
STARLINK-3208
国际标识:
2021-115AX
轨道中心:
EARTH
卫星名称:
星链-3208
卫星全名:
星链-3208 (STARLINK-3208 )
卫星状态:
在轨 (已飞行1563 天)
发射日期:
2021-12-02 UTC
国别 :
美国 (US)
星等 :
--
轨道信息
数据来源 国际轨道数据
星历时间: 2026-03-14T15:10:42+0800
11小时前
查看轨道信息
半长轴: 6917.892km
偏心率: 0.000141
轨道倾角: 53.217°
近地点辐角 90.107°
升交点赤经 118.478°
平近点角 270.008°
近地点: 538.779km
远地点: 540.731km
周期: 95.438分钟
每日圈数: 15.088364
详细信息
固有亮度:
5
最大亮度:
2.5
卫星平台:
Starlink v1.5
覆盖范围:
全球
运营商:
太空探索技术公司
运营商所在国:
美国
制造商(研发单位):
太空探索技术公司
制造商所在国:
美国
使用方式:
暂无
卫星简介
星链(Starlink)计划是由太空探索技术公司(SpaceX)提出的一个巨型低轨卫星互联网星座项目,计划在2019年至2024年间在太空搭建由约1.2万颗卫星组成的“星链”网络,其中1584颗将部署在地球上空550千米处的近地轨道,并从2020年开始工作。该卫星仍在工作。
2D轨道图
3D轨道图
轨道高度分析图
轨道倾角分析图
轨道综合分析图
查看轨道综合分析图